sat.trackr.live / text

‹ back to catalog

STARLINK-36661

NORAD 67831 · 2026-033L

PAYLOAD ACTIVE UNKNOWN

§ Identity

Operator
Country
US
Launch date
2026-02-16
Launch site
AFETR
Launch vehicle
Mass (kg)
RCS (m²)

Purposes: comms

External: N2YO · Heavens-Above · Gunter

§ Orbital elements

Epoch: 2026-09-19T07:52:13.586592Z

Period
94.27 min
Inclination
43.0007°
Eccentricity
0.0001456
Mean motion
15.27584266 rev/d
Perigee alt
482.0 km
Apogee alt
484.0 km
Semi-major
6,861.2 km
B*
3.2218e-4
RAAN
253.9166°
Arg perigee
275.2823°
Mean anomaly
84.7863°
Rev number
3,428

§ Raw data

STARLINK-366611 67831U 26033L   26262.32793503  .00008615  00000+0  32218-3 0  99972 67831  43.0007 253.9166 0001456 275.2823  84.7863 15.27584266 34287

JSON: /api/v1/satellites/67831 · /tle

For live sub-satellite position, see the globe view (requires WebGL).

§ Visibility from observer

Set your observer location to see the next 7 days of passes ≥ 10°. The values pass through the URL so the page stays shareable.

No JS? Fill the form by hand. The geolocation button needs JavaScript.